[[{"header":{"parameterUnit":"m.s-1","parameterCategory":1,"la1":30.2991,"la2":30.254,"lo1":-89.0895,"lo2":-89.0444,"dy":0.0017,"dx":0.0017,"nx":28,"ny":28,"refTime":"2024-06-22T09:00:00:Z","depth":0,"parameterNumber":2,"parameterNumberName":"U-component_of_WINDS"},"data":[0,0,0,0,0,0,0,0,0,0,0,0,0,0,0,0,0,0,0,0,0,0,0,0,0,0,0,0,0,0,0,0,0,0,0,0,0,0,0,0,0,0,0,0,0,0,0,0,0,0,0,0,0,0,0,0,0,0,-0.1331,-0.1331,0,-0.1357,-0.1357,-0.1358,-0.1349,-0.1349,-0.1348,-0.1348,-0.1376,-0.1378,-0.1379,0,0,0,0,0,0,0,0,0,0,0,0,0,-0.1273,-0.1274,-0.1331,-0.1331,-0.1331,-0.1357,-0.1358,-0.1358,-0.1349,-0.1349,-0.1348,-0.1347,-0.1376,-0.1377,-0.1379,0,0,0,0,0,0,0,0,0,0,0,0,0,-0.1299,-0.1275,-0.1331,-0.133,-0.133,-0.1357,-0.1358,-0.1358,-0.135,-0.1349,-0.1348,-0.1347,-0.1375,-0.1377,-0.1379,-0.1408,0,0,-0.1385,-0.1386,0,0,0,0,0,0,0,0,-0.1297,-0.1301,-0.133,-0.133,-0.1331,-0.1349,-0.1348,-0.1375,-0.135,-0.1342,-0.1348,-0.1347,-0.1368,-0.1371,-0.1377,-0.141,-0.1411,-0.1385,-0.1386,-0.1387,-0.1388,0,0,0,0,0,0,0,-0.1296,-0.13,-0.1341,-0.133,-0.1331,-0.1329,-0.1332,-0.1353,-0.136,-0.1343,-0.1342,-0.1346,-0.1368,-0.1376,-0.1378,-0.1411,-0.1385,-0.1387,-0.1388,-0.1389,-0.1468,-0.1469,0,0,0,0,0,0,-0.1293,-0.1298,-0.134,-0.1342,-0.1311,-0.1331,-0.1334,-0.1344,-0.1359,-0.1361,-0.1346,-0.1345,-0.1373,-0.1376,-0.1379,-0.1414,-0.1387,-0.1389,-0.139,-0.1467,-0.1468,-0.1469,0,0,0,0,0,0,-0.1292,-0.1297,-0.1339,-0.132,-0.1325,-0.1332,-0.1344,-0.1345,-0.1353,-0.1362,-0.1363,-0.1353,-0.1372,-0.1376,-0.1401,-0.1415,-0.139,-0.1392,-0.1466,-0.1467,-0.1469,-0.1485,0,0,0,0,0,0,-0.1291,-0.1297,-0.1308,-0.132,-0.1326,-0.1361,-0.1345,-0.1346,-0.1356,-0.1354,-0.1368,-0.137,-0.1372,-0.1398,-0.1403,-0.1417,-0.1393,-0.1465,-0.1467,-0.1468,-0.1483,-0.1486,-0.1489,0,0,0,0,0,-0.1289,-0.1312,-0.1309,-0.1314,-0.134,-0.1361,-0.1365,-0.1366,-0.1357,-0.1368,-0.1374,-0.1369,-0.1412,-0.1401,-0.1406,-0.1421,-0.1464,-0.1466,-0.1468,-0.1481,-0.1486,-0.1489,0,0,0,0,0,0,-0.1302,-0.1314,-0.131,-0.1338,-0.1349,-0.136,-0.1375,-0.1371,-0.1385,-0.1383,-0.1385,-0.1388,-0.1413,-0.1419,-0.1406,-0.145,-0.1437,-0.144,-0.1445,-0.1449,-0.1452,-0.1451,-0.1395,0,0,0,0,0,-0.1308,-0.1324,-0.1333,-0.1357,-0.1362,-0.1367,-0.1377,-0.1377,-0.1388,-0.1393,-0.1401,-0.1412,-0.1428,-0.1439,-0.1454,-0.1483,-0.1486,-0.1496,-0.1499,-0.1502,-0.1505,-0.1521,-0.1526,-0.1476,-0.1476,-0.1476,0,0,-0.1321,-0.1329,-0.134,-0.136,-0.1368,-0.1385,-0.1371,-0.139,-0.1402,-0.1396,-0.142,-0.1425,-0.1438,-0.1465,-0.1477,-0.1471,-0.1519,-0.1505,-0.1507,-0.1509,-0.1524,-0.1528,-0.1532,-0.1478,-0.1477,-0.1477,0,0,-0.1354,-0.1361,-0.1382,-0.139,-0.1402,-0.1405,-0.141,-0.1422,-0.1425,-0.1449,-0.1444,-0.1458,-0.1486,-0.1495,-0.1504,-0.1538,-0.1534,-0.1543,-0.156,-0.1576,-0.158,-0.1583,-0.1596,-0.16,-0.1546,-0.1546,-0.1546,0,-0.1369,-0.1393,-0.1393,-0.1412,-0.1421,-0.1414,-0.1435,-0.1443,-0.146,-0.1466,-0.1459,-0.1493,-0.1501,-0.153,-0.1538,-0.1545,-0.1551,-0.1542,-0.1579,-0.1582,-0.1586,-0.1598,-0.1602,-0.1547,-0.1547,-0.1547,-0.1546,0,-0.1411,-0.1428,-0.1443,-0.1459,-0.147,-0.1489,-0.1492,-0.1503,-0.1501,-0.1505,-0.1528,-0.1538,-0.1555,-0.1561,-0.156,-0.159,-0.1585,-0.1578,-0.1566,-0.1591,-0.1603,-0.1607,-0.1548,-0.1548,-0.1548,-0.1547,0,0,-0.1455,-0.1469,-0.1475,-0.1481,-0.1494,-0.1507,-0.1526,-0.1542,-0.1551,-0.1562,-0.1579,-0.1601,-0.1594,-0.1604,-0.1604,-0.1617,-0.1644,-0.1608,-0.1608,-0.1615,-0.1677,-0.1683,-0.1688,-0.164,-0.1641,-0.1642,-0.1676,0,-0.1489,-0.1522,-0.1522,-0.1553,-0.1568,-0.1561,-0.1578,-0.1587,-0.1591,-0.1605,-0.1609,-0.1625,-0.1614,-0.162,-0.1633,-0.1638,-0.1656,-0.1635,-0.1656,-0.1657,-0.1654,-0.1694,-0.1701,-0.1733,-0.168,-0.1681,-0.1682,0,-0.1534,-0.1546,-0.1578,-0.1587,-0.1594,-0.1609,-0.1623,-0.1636,-0.1646,-0.1648,-0.1658,-0.1655,-0.1674,-0.1659,-0.1686,-0.1672,-0.168,-0.1684,-0.1685,-0.1688,-0.1672,-0.1699,-0.1743,-0.1748,-0.1689,-0.1688,-0.1688,0,-0.1563,-0.1587,-0.161,-0.1616,-0.1627,-0.1638,-0.1643,-0.1652,-0.1661,-0.1673,-0.1679,-0.1694,-0.1702,-0.1713,-0.1714,-0.1703,-0.1741,-0.1726,-0.1743,-0.1743,-0.1753,-0.1752,-0.1799,-0.1756,-0.1756,-0.1756,-0.1756,0,-0.1602,-0.1623,-0.1623,-0.1637,-0.1659,-0.1658,-0.168,-0.1684,-0.1692,-0.1707,-0.1701,-0.1715,-0.1715,-0.173,-0.173,-0.1752,-0.1756,-0.1758,-0.1758,-0.1759,-0.1759,-0.1766,-0.1764,-0.1757,-0.1757,-0.1757,-0.1757,0,-0.164,-0.1641,-0.1665,-0.1673,-0.1675,-0.1691,-0.1698,-0.1712,-0.1714,-0.1732,-0.1736,-0.174,-0.1756,-0.1758,-0.1777,-0.1778,-0.1804,-0.1802,-0.1801,-0.1801,-0.1818,-0.1817,-0.1872,-0.1879,-0.183,-0.1831,-0.1831,0,-0.1665,-0.1681,-0.169,-0.1699,-0.1704,-0.1719,-0.1728,-0.1727,-0.1737,-0.1748,-0.176,-0.1776,-0.1788,-0.1814,-0.1819,-0.1833,-0.1832,-0.185,-0.1834,-0.1834,-0.1833,-0.1832,-0.1834,-0.1853,-0.1854,-0.1854,-0.1855,0,-0.1711,-0.171,-0.1723,-0.1736,-0.1747,-0.1757,-0.1767,-0.1774,-0.1774,-0.1785,-0.1801,-0.1811,-0.183,-0.1845,-0.1859,-0.1864,-0.186,-0.1859,-0.1864,-0.1866,-0.1865,-0.1867,-0.1811,-0.1859,-0.1858,-0.1858,-0.1858,-0.1858,-0.1743,-0.1757,-0.1765,-0.1779,-0.1786,-0.1795,-0.1807,-0.1811,-0.1824,-0.1839,-0.1837,-0.1855,-0.1864,-0.1882,-0.1888,-0.1902,-0.1896,-0.1903,-0.1905,-0.1907,-0.1909,-0.1862,-0.1904,-0.1904,-0.1904,-0.1904,-0.1904,0,-0.1789,-0.1794,-0.1807,-0.182,-0.1831,-0.1824,-0.1834,-0.1844,-0.186,-0.1868,-0.188,-0.1899,-0.1913,-0.1918,-0.1932,-0.1943,-0.1941,-0.1946,-0.1946,-0.1948,-0.1913,-0.1908,-0.1948,-0.1948,-0.1948,-0.1948,-0.1948,-0.1948,-0.1814,-0.1836,-0.1836,-0.1861,-0.1865,-0.1882,-0.1889,-0.1897,-0.1903,-0.1924,-0.1936,-0.1938,-0.1945,-0.196,-0.1973,-0.1974,-0.198,-0.1986,-0.1987,-0.1955,-0.195,-0.1946,-0.1941,-0.1987,-0.1987,-0.202,-0.2021,-0.2021]},{"header":{"parameterUnit":"m.s-1","parameterCategory":1,"la1":30.2991,"la2":30.254,"lo1":-89.0895,"lo2":-89.0444,"dy":0.0017,"dx":0.0017,"nx":28,"ny":28,"refTime":"2024-06-22T09:00:00:Z","depth":0,"parameterNumber":3,"parameterNumberName":"V-component_of_WINDS"},"data":[0,0,0,0,0,0,0,0,0,0,0,0,0,0,0,0,0,0,0,0,0,0,0,0,0,0,0,0,0,0,0,0,0,0,0,0,0,0,0,0,0,0,0,0,0,0,0,0,0,0,0,0,0,0,0,0,0,0,-3.0738,-3.0739,0,-3.0808,-3.0809,-3.081,-3.0779,-3.0778,-3.0776,-3.0774,-3.0842,-3.0846,-3.0849,0,0,0,0,0,0,0,0,0,0,0,0,0,-3.0574,-3.0578,-3.0738,-3.0739,-3.074,-3.0808,-3.0809,-3.081,-3.078,-3.0778,-3.0776,-3.0774,-3.0841,-3.0845,-3.0849,0,0,0,0,0,0,0,0,0,0,0,0,0,-3.0645,-3.0579,-3.0738,-3.0733,-3.0733,-3.0808,-3.0809,-3.081,-3.078,-3.0778,-3.0775,-3.0773,-3.084,-3.0845,-3.085,-3.0932,0,0,-3.0865,-3.0868,0,0,0,0,0,0,0,0,-3.0641,-3.0651,-3.0733,-3.0734,-3.0734,-3.0783,-3.0776,-3.0851,-3.0781,-3.0762,-3.0774,-3.0771,-3.0824,-3.083,-3.0849,-3.0935,-3.0938,-3.0866,-3.0869,-3.0871,-3.0873,0,0,0,0,0,0,0,-3.0636,-3.0648,-3.0766,-3.0734,-3.0735,-3.0726,-3.0733,-3.079,-3.0806,-3.0764,-3.0762,-3.0771,-3.0824,-3.0844,-3.085,-3.0939,-3.0866,-3.087,-3.0873,-3.0875,-3.1096,-3.1099,0,0,0,0,0,0,-3.0632,-3.0644,-3.0763,-3.0768,-3.068,-3.0731,-3.0739,-3.0769,-3.0806,-3.0809,-3.0773,-3.0769,-3.0837,-3.0845,-3.0853,-3.0951,-3.0871,-3.0876,-3.0879,-3.1093,-3.1096,-3.11,0,0,0,0,0,0,-3.0628,-3.0643,-3.0761,-3.0705,-3.072,-3.0737,-3.0771,-3.0772,-3.0792,-3.0813,-3.0815,-3.0791,-3.0835,-3.0846,-3.0913,-3.0953,-3.0878,-3.0883,-3.109,-3.1094,-3.1098,-3.1148,0,0,0,0,0,0,-3.0624,-3.0642,-3.0674,-3.0706,-3.0723,-3.0821,-3.0773,-3.0775,-3.0802,-3.0797,-3.083,-3.0833,-3.0834,-3.0905,-3.0918,-3.0958,-3.0887,-3.1086,-3.1092,-3.1097,-3.1143,-3.1154,-3.1163,0,0,0,0,0,-3.0618,-3.0685,-3.0676,-3.069,-3.0764,-3.0823,-3.0832,-3.0833,-3.0805,-3.0837,-3.085,-3.0832,-3.0947,-3.0912,-3.0926,-3.0969,-3.1084,-3.109,-3.1096,-3.1139,-3.1152,-3.1163,0,0,0,0,0,0,-3.0655,-3.0689,-3.0679,-3.0759,-3.0789,-3.0818,-3.0858,-3.0847,-3.0884,-3.0878,-3.0877,-3.0884,-3.0954,-3.0968,-3.0929,-3.105,-3.1011,-3.102,-3.1038,-3.1051,-3.106,-3.1055,-3.0891,0,0,0,0,0,-3.0673,-3.072,-3.0746,-3.0813,-3.0829,-3.0841,-3.0867,-3.0865,-3.0895,-3.0907,-3.0925,-3.0954,-3.0997,-3.1025,-3.1065,-3.1145,-3.1151,-3.1182,-3.1191,-3.1199,-3.1207,-3.125,-3.1264,-3.112,-3.112,-3.112,0,0,-3.0709,-3.0733,-3.0763,-3.0821,-3.0844,-3.0891,-3.0852,-3.0903,-3.0938,-3.0915,-3.098,-3.0994,-3.1026,-3.11,-3.1134,-3.1114,-3.1248,-3.1208,-3.1214,-3.1217,-3.1258,-3.1272,-3.1284,-3.1125,-3.1124,-3.1123,0,0,-3.08,-3.0823,-3.0882,-3.0906,-3.0941,-3.0949,-3.0963,-3.0995,-3.1004,-3.1069,-3.1053,-3.1093,-3.1167,-3.119,-3.1211,-3.1311,-3.1296,-3.1324,-3.1375,-3.1417,-3.1428,-3.1438,-3.1473,-3.1486,-3.1332,-3.1332,-3.1333,0,-3.084,-3.0912,-3.0913,-3.0966,-3.0992,-3.0975,-3.1033,-3.1056,-3.1102,-3.112,-3.1098,-3.119,-3.121,-3.1289,-3.1314,-3.1332,-3.1347,-3.132,-3.1427,-3.1437,-3.1446,-3.1479,-3.1492,-3.1336,-3.1335,-3.1335,-3.1335,0,-3.0959,-3.1009,-3.1052,-3.1098,-3.1129,-3.1185,-3.1193,-3.1224,-3.1219,-3.1229,-3.1295,-3.132,-3.1364,-3.1383,-3.1379,-3.1462,-3.1448,-3.1427,-3.1387,-3.1463,-3.1494,-3.1507,-3.134,-3.1339,-3.1338,-3.1337,0,0,-3.1074,-3.1121,-3.1137,-3.1157,-3.1196,-3.1234,-3.1288,-3.1333,-3.1359,-3.1392,-3.1436,-3.1499,-3.148,-3.1504,-3.1502,-3.1539,-3.1616,-3.1513,-3.1514,-3.1531,-3.1708,-3.1723,-3.1737,-3.1606,-3.1609,-3.1611,-3.1704,0,-3.1166,-3.1263,-3.1266,-3.1354,-3.1399,-3.1384,-3.1431,-3.1459,-3.147,-3.1509,-3.152,-3.1564,-3.1536,-3.155,-3.1586,-3.1599,-3.1651,-3.1592,-3.1646,-3.1648,-3.1638,-3.1754,-3.177,-3.1857,-3.1717,-3.1719,-3.172,0,-3.1287,-3.1325,-3.1418,-3.1449,-3.1468,-3.1511,-3.1552,-3.1591,-3.1621,-3.1627,-3.1654,-3.1647,-3.1701,-3.1661,-3.1735,-3.1695,-3.1717,-3.1727,-3.173,-3.1734,-3.1688,-3.176,-3.1885,-3.1898,-3.1739,-3.1738,-3.1737,0,-3.136,-3.1434,-3.1499,-3.1518,-3.1557,-3.1587,-3.1604,-3.1633,-3.1659,-3.1695,-3.1712,-3.1754,-3.1776,-3.1807,-3.1811,-3.1781,-3.1885,-3.1845,-3.189,-3.189,-3.1911,-3.191,-3.2041,-3.1928,-3.1928,-3.1928,-3.1927,0,-3.1462,-3.152,-3.1533,-3.1573,-3.1636,-3.1638,-3.17,-3.1715,-3.1741,-3.1782,-3.1771,-3.181,-3.1813,-3.1853,-3.1856,-3.1917,-3.1927,-3.1932,-3.1931,-3.1932,-3.1931,-3.1946,-3.1939,-3.1931,-3.193,-3.193,-3.1929,0,-3.1554,-3.1566,-3.1635,-3.1667,-3.1676,-3.1721,-3.1748,-3.1785,-3.1795,-3.1848,-3.186,-3.1875,-3.1921,-3.1929,-3.1983,-3.1985,-3.2057,-3.2051,-3.2047,-3.2045,-3.209,-3.2085,-3.2234,-3.2253,-3.2128,-3.2129,-3.213,0,-3.1618,-3.1662,-3.1699,-3.1727,-3.1746,-3.179,-3.1818,-3.1822,-3.1851,-3.189,-3.1922,-3.1968,-3.2004,-3.2079,-3.2093,-3.2135,-3.2129,-3.2178,-3.2135,-3.2134,-3.2128,-3.2125,-3.2129,-3.2186,-3.2187,-3.2189,-3.2189,0,-3.1731,-3.1734,-3.1775,-3.1818,-3.1852,-3.1886,-3.1918,-3.1941,-3.1948,-3.1981,-3.2029,-3.2058,-3.2113,-3.2158,-3.2199,-3.2215,-3.2203,-3.2203,-3.2216,-3.2216,-3.2211,-3.2213,-3.2068,-3.2199,-3.2198,-3.2198,-3.2197,-3.2197,-3.181,-3.1848,-3.188,-3.1925,-3.195,-3.198,-3.2017,-3.2032,-3.2073,-3.2119,-3.2119,-3.2171,-3.22,-3.2254,-3.2274,-3.2313,-3.2297,-3.2315,-3.232,-3.2324,-3.2328,-3.2206,-3.2321,-3.2321,-3.232,-3.232,-3.232,0,-3.192,-3.194,-3.1983,-3.2028,-3.2064,-3.2052,-3.2086,-3.2117,-3.2163,-3.2192,-3.2229,-3.2283,-3.2327,-3.2346,-3.2388,-3.2417,-3.2412,-3.2427,-3.2425,-3.2428,-3.234,-3.2325,-3.243,-3.243,-3.243,-3.243,-3.243,-3.243,-3.1982,-3.2046,-3.2053,-3.2128,-3.2147,-3.2199,-3.222,-3.2248,-3.2271,-3.2333,-3.2369,-3.2382,-3.2407,-3.2451,-3.249,-3.2494,-3.251,-3.2527,-3.2529,-3.2446,-3.2435,-3.2424,-3.2409,-3.2531,-3.2531,-3.2614,-3.2614,-3.2615]}]]